KF5PJP Weather Reports


Display with metric or nautical units.
time (UTC)temp
F
wind
direction
speed
MPH
gust
MPH
rain 1hr
in
rain 24hr
in
rain mn
in
humidity
%
barometer
mb
20260509083359 70 257 0.0 0.0 0.00 0.00 0.00 91 1008.9
20260509082411 70 257 0.0 0.0 0.00 0.00 0.00 91 1009.4
20260509081407 70 259 0.0 0.0 0.00 0.00 0.00 90 1009.7
20260509080417 70 259 0.0 0.0 0.00 0.00 0.00 90 1009.5
20260509075947 70 259 0.0 0.0 0.00 0.00 0.00 90 1009.6
20260509075411 70 259 0.0 0.0 0.00 0.00 0.00 90 1009.9
20260509074406 70 259 0.0 0.0 0.00 0.00 0.00 90 1010.1
20260509073940 70 259 0.0 0.0 0.00 0.00 0.00 90 1010.2
20260509073403 70 259 0.0 0.0 0.00 0.00 0.00 90 1010.1
20260509072433 70 260 0.0 0.0 0.00 0.00 0.00 89 1010.1
20260509071959 70 259 0.0 0.0 0.00 0.00 0.00 89 1010.1
20260509071405 70 259 0.0 0.0 0.00 0.00 0.00 89 1010.0
20260509070922 70 259 0.0 0.0 0.00 0.00 0.00 89 1010.0
20260509065853 70 257 0.0 1.0 0.00 0.00 0.00 89 1010.1
20260509065412 70 265 0.0 1.0 0.00 0.00 0.00 89 1010.0
20260509064935 70 246 0.0 1.0 0.00 0.00 0.00 89 1009.9
20260509064415 70 212 0.0 2.0 0.00 0.00 0.00 88 1010.1
20260509063851 71 212 0.0 2.0 0.00 0.00 0.00 88 1009.7
20260509063352 71 275 1.0 2.0 0.00 0.00 0.00 88 1009.2
20260509062905 71 279 0.0 1.0 0.00 0.00 0.00 88 1009.6
20260509062349 71 279 0.0 1.0 0.00 0.00 0.00 87 1010.1
20260509061849 71 256 1.0 1.0 0.00 0.00 0.00 87 1010.0
20260509061419 71 224 0.0 2.0 0.00 0.00 0.00 87 1010.0
20260509060859 71 258 0.0 2.0 0.00 0.00 0.00 87 1010.1
20260509060411 71 245 0.0 0.0 0.00 0.00 0.00 87 1010.4
20260509055853 71 267 0.0 0.0 0.00 0.00 0.00 87 1010.6
20260509055409 71 267 0.0 0.0 0.00 0.00 0.00 87 1010.7
20260509054913 71 268 0.0 0.0 0.00 0.00 0.00 86 1010.8
20260509054417 71 267 0.0 1.0 0.00 0.00 0.00 86 1010.8
20260509053915 71 267 0.0 1.0 0.00 0.00 0.00 86 1010.8
20260509053403 72 271 0.0 0.0 0.00 0.00 0.00 86 1010.9
20260509052912 72 271 0.0 0.0 0.00 0.00 0.00 86 1010.9
20260509052432 72 271 0.0 2.0 0.00 0.00 0.00 86 1010.9
20260509051901 72 271 0.0 2.0 0.00 0.00 0.00 86 1010.7
20260509051358 72 267 0.0 0.0 0.00 0.00 0.00 86 1010.7
20260509050855 72 267 0.0 0.0 0.00 0.00 0.00 86 1010.7
20260509050356 72 266 0.0 0.0 0.00 0.00 0.00 86 1010.6
20260509045923 72 266 0.0 1.0 0.00 0.00 0.00 86 1010.5
20260509045448 72 267 0.0 1.0 0.00 0.00 0.00 86 1010.4
20260509044907 72 265 0.0 1.0 0.00 0.00 0.00 86 1010.3
20260509043903 72 261 0.0 1.0 0.00 0.00 0.00 85 1010.1
20260509043426 72 261 0.0 1.0 0.00 0.00 0.00 85 1010.1
20260509042416 72 248 0.0 1.0 0.00 0.00 0.00 85 1010.0
20260509041414 72 273 0.0 0.0 0.00 0.00 0.00 85 1009.9
20260509040431 72 273 0.0 0.0 0.00 0.00 0.00 84 1009.8
20260509035946 72 273 0.0 0.0 0.00 0.00 0.00 84 1009.7
20260509035355 72 273 0.0 1.0 0.00 0.00 0.00 84 1009.6
20260509034359 72 257 0.0 1.0 0.00 0.00 0.00 84 1009.6
20260509033922 72 271 0.0 0.0 0.00 0.00 0.00 83 1009.7
20260509032913 73 273 0.0 1.0 0.00 0.00 0.00 83 1009.7
20260509032416 73 273 0.0 1.0 0.00 0.00 0.00 83 1009.7
20260509031942 73 288 0.0 2.0 0.00 0.00 0.00 83 1009.7
20260509031347 73 288 0.0 2.0 0.00 0.00 0.00 83 1009.5
20260509030415 73 237 0.0 0.0 0.00 0.00 0.00 82 1009.4
20260509025422 73 264 0.0 0.0 0.00 0.00 0.00 82 1009.3
20260509024941 73 269 0.0 1.0 0.00 0.00 0.00 81 1009.1
20260509023901 73 261 0.0 0.0 0.00 0.00 0.00 81 1009.0
20260509023426 73 277 0.0 2.0 0.00 0.00 0.00 81 1009.0
20260509022931 73 292 0.0 2.0 0.00 0.00 0.00 80 1008.9
20260509022350 73 207 0.0 1.0 0.00 0.00 0.00 80 1008.9
20260509021928 73 211 0.0 1.0 0.00 0.00 0.00 80 1008.8
20260509021440 73 211 0.0 1.0 0.00 0.00 0.00 80 1008.7
20260509020855 73 269 0.0 1.0 0.00 0.00 0.00 80 1008.6
20260509015852 73 265 0.0 1.0 0.00 0.00 0.00 79 1008.6
20260509015422 73 267 0.0 1.0 0.00 0.00 0.00 79 1008.6
20260509014937 73 202 0.0 0.0 0.00 0.00 0.00 78 1008.5
20260509014408 74 202 0.0 2.0 0.00 0.00 0.00 78 1008.4
20260509013944 74 202 0.0 2.0 0.00 0.00 0.00 78 1008.3
20260509013403 74 252 0.0 1.0 0.00 0.00 0.00 78 1008.3
20260509012941 74 248 0.0 0.0 0.00 0.00 0.00 77 1008.3
20260509011905 74 249 0.0 0.0 0.00 0.00 0.00 77 1008.1
20260509010908 74 278 0.0 3.0 0.00 0.00 0.00 76 1008.1
20260509005912 75 250 0.0 0.0 0.00 0.00 0.00 76 1007.9
20260509004907 75 307 0.0 2.0 0.00 0.00 0.00 75 1007.9
20260509004447 75 307 0.0 2.0 0.00 0.00 0.00 75 1008.0
20260509003850 75 259 0.0 1.0 0.00 0.00 0.00 74 1008.0
20260509002914 76 248 0.0 0.0 0.00 0.00 0.00 72 1008.0
20260509001911 77 279 0.0 0.0 0.00 0.00 0.00 71 1007.9
20260509000909 77 279 0.0 1.0 0.00 0.00 0.00 70 1007.9
20260509000440 78 215 0.0 0.0 0.00 0.00 0.00 70 1007.8
20260508235426 77 274 0.0 5.0 0.00 0.00 0.00 70 1007.7
20260508234411 77 248 0.0 3.0 0.00 0.00 0.00 70 1007.7
20260508233413 78 211 1.0 3.0 0.00 0.00 0.00 67 1007.6
20260508232411 78 290 1.0 4.0 0.00 0.00 0.00 67 1007.9
20260508231403 78 223 0.0 6.0 0.00 0.00 0.00 67 1007.9
20260508230421 78 290 1.0 3.0 0.00 0.00 0.00 66 1008.1
20260508225408 78 274 1.0 2.0 0.00 0.00 0.00 65 1008.6
20260508224420 78 265 0.0 1.0 0.00 0.00 0.00 65 1009.0
20260508223411 79 265 0.0 1.0 0.00 0.00 0.00 64 1008.9
20260508222947 79 265 0.0 2.0 0.00 0.00 0.00 63 1008.8
20260508222415 79 259 0.0 2.0 0.00 0.00 0.00 64 1009.0
20260508221938 79 272 0.0 2.0 0.00 0.00 0.00 63 1009.0
20260508221405 79 298 1.0 2.0 0.00 0.00 0.00 64 1008.9
20260508220930 80 280 1.0 2.0 0.00 0.00 0.00 61 1008.6
20260508215918 80 145 0.0 1.0 0.00 0.00 0.00 62 1008.8
20260508215444 79 52 0.0 2.0 0.00 0.00 0.00 64 1008.8
20260508214416 79 91 1.0 3.0 0.00 0.00 0.00 61 1009.4
20260508213408 80 86 0.0 3.0 0.00 0.00 0.00 61 1009.3
20260508212423 81 292 0.0 2.0 0.00 0.00 0.00 60 1009.1
20260508211848 81 279 1.0 2.0 0.00 0.00 0.00 61 1009.0
20260508211418 81 277 0.0 2.0 0.00 0.00 0.00 60 1009.1
20260508210406 81 90 0.0 2.0 0.00 0.00 0.00 60 1009.1
20260508205931 80 284 0.0 2.0 0.00 0.00 0.00 61 1009.0
20260508204922 80 257 0.0 2.0 0.00 0.00 0.00 60 1009.3
20260508203917 81 261 0.0 2.0 0.00 0.00 0.00 59 1009.1
20260508202909 80 259 1.0 3.0 0.00 0.00 0.00 58 1008.9
20260508201917 81 268 1.0 4.0 0.00 0.00 0.00 57 1009.2
20260508200912 80 286 1.0 3.0 0.00 0.00 0.00 57 1009.6
20260508195902 82 263 0.0 2.0 0.00 0.00 0.00 56 1009.8
20260508194914 80 261 0.0 3.0 0.00 0.00 0.00 57 1009.9
20260508193855 80 277 0.0 3.0 0.00 0.00 0.00 56 1010.1
20260508192858 80 123 0.0 3.0 0.00 0.00 0.00 56 1010.1
20260508191902 80 157 1.0 3.0 0.00 0.00 0.00 56 1010.2
20260508190912 79 264 2.0 3.0 0.00 0.00 0.00 57 1010.4
20260508190437 79 246 1.0 3.0 0.00 0.00 0.00 57 1010.5
20260508190001 79 258 2.0 3.0 0.00 0.00 0.00 57 1010.6
20260508185412 79 284 1.0 3.0 0.00 0.00 0.00 57 1010.5
20260508184421 79 238 1.0 4.0 0.00 0.00 0.00 57 1010.6
20260508183357 79 228 0.0 2.0 0.00 0.00 0.00 57 1010.7
20260508181911 79 263 0.0 2.0 0.00 0.00 0.00 59 1011.2
20260508180921 78 275 0.0 3.0 0.00 0.00 0.00 60 1011.4
20260508175918 77 272 0.0 1.0 0.00 0.00 0.00 60 1011.4
20260508174915 78 119 0.0 3.0 0.00 0.00 0.00 62 1011.7
20260508174444 78 199 1.0 3.0 0.00 0.00 0.00 59 1011.8
20260508173907 78 159 0.0 2.0 0.00 0.00 0.00 61 1011.9
20260508173433 77 261 0.0 3.0 0.00 0.00 0.00 59 1012.1
20260508172946 78 272 1.0 2.0 0.00 0.00 0.00 58 1012.2
20260508172352 77 277 0.0 3.0 0.00 0.00 0.00 60 1012.2
20260508171916 76 227 0.0 3.0 0.00 0.00 0.00 60 1012.2
20260508170922 75 265 1.0 4.0 0.00 0.00 0.00 60 1012.3
20260508165933 74 338 1.0 4.0 0.00 0.00 0.00 65 1012.5
20260508165437 74 244 2.0 4.0 0.00 0.00 0.00 63 1012.7
20260508164409 74 283 1.0 4.0 0.00 0.00 0.00 65 1013.0
20260508164002 74 211 2.0 4.0 0.00 0.00 0.00 63 1013.0
20260508163351 74 264 2.0 2.0 0.00 0.00 0.00 64 1013.2
20260508162412 72 268 1.0 3.0 0.00 0.00 0.00 67 1013.4
20260508161356 71 267 2.0 4.0 0.00 0.00 0.00 67 1013.6
20260508160921 72 267 1.0 3.0 0.00 0.00 0.00 67 1013.7
20260508155919 71 265 1.0 3.0 0.00 0.00 0.00 67 1013.8
20260508154920 71 281 1.0 4.0 0.00 0.00 0.00 69 1013.9
20260508153926 71 259 1.0 3.0 0.00 0.00 0.00 71 1013.8
20260508152902 70 286 1.0 4.0 0.00 0.00 0.00 70 1013.8
20260508151920 70 252 0.0 3.0 0.00 0.00 0.00 71 1014.0
20260508150929 70 304 1.0 3.0 0.00 0.00 0.00 70 1014.1
20260508150445 70 281 1.0 3.0 0.00 0.00 0.00 70 1014.1
20260508145848 70 256 0.0 3.0 0.00 0.00 0.00 71 1014.3
20260508145427 70 260 1.0 3.0 0.00 0.00 0.00 70 1014.3
20260508144904 70 283 2.0 3.0 0.00 0.00 0.00 71 1014.3
20260508144445 70 259 1.0 3.0 0.00 0.00 0.00 71 1014.2
20260508143942 69 271 0.0 2.0 0.00 0.00 0.00 73 1014.3
20260508142909 68 263 1.0 2.0 0.00 0.00 0.00 74 1014.1
20260508141917 67 304 0.0 1.0 0.00 0.00 0.00 77 1014.2
20260508141419 67 267 0.0 2.0 0.00 0.00 0.00 76 1014.1
20260508140415 66 277 1.0 2.0 0.00 0.00 0.00 78 1014.3
20260508135939 66 281 1.0 2.0 0.00 0.00 0.00 78 1014.2
20260508135355 65 257 0.0 2.0 0.00 0.00 0.00 79 1014.2
20260508134354 65 283 2.0 3.0 0.00 0.00 0.00 79 1013.8
20260508133355 65 258 2.0 3.0 0.00 0.00 0.00 80 1013.4
20260508132922 65 250 1.0 2.0 0.00 0.00 0.00 81 1013.3
20260508131856 64 241 1.0 2.0 0.00 0.00 0.00 83 1013.1
20260508131419 63 280 1.0 2.0 0.00 0.00 0.00 83 1013.2
20260508130931 63 263 0.0 1.0 0.00 0.00 0.00 85 1013.3
20260508125910 62 245 0.0 0.0 0.00 0.00 0.00 86 1013.8
20260508124852 61 244 0.0 0.0 0.00 0.00 0.00 87 1014.2
20260508123916 60 154 0.0 0.0 0.00 0.00 0.00 88 1014.4
20260508122911 60 267 0.0 0.0 0.00 0.00 0.00 88 1013.9
20260508121913 60 267 0.0 0.0 0.00 0.00 0.00 88 1013.5
20260508120906 59 267 0.0 0.0 0.00 0.00 0.00 88 1013.4
20260508115921 59 273 0.0 1.0 0.00 0.00 0.00 89 1013.6
20260508115350 59 273 0.0 1.0 0.00 0.00 0.00 89 1013.5
20260508114931 59 232 0.0 0.0 0.00 0.00 0.00 90 1013.4
20260508113857 58 232 0.0 0.0 0.00 0.00 0.00 90 1013.5
20260508113418 58 232 0.0 0.0 0.00 0.00 0.00 90 1013.5
20260508112406 58 232 0.0 0.0 0.00 0.00 0.00 90 1013.7
20260508111400 58 232 0.0 0.0 0.00 0.00 0.00 90 1013.9
20260508110352 58 229 0.0 0.0 0.00 0.00 0.00 90 1014.0
20260508105413 59 229 0.0 0.0 0.00 0.00 0.00 89 1014.2
20260508104946 59 229 0.0 0.0 0.00 0.00 0.00 89 1014.0
20260508103902 59 229 0.0 0.0 0.00 0.00 0.00 89 1014.2
20260508102904 59 217 0.0 0.0 0.00 0.00 0.00 88 1014.1
20260508102437 59 208 0.0 0.0 0.00 0.00 0.00 88 1014.2
20260508101846 60 208 0.0 0.0 0.00 0.00 0.00 88 1014.2
20260508101406 60 208 0.0 0.0 0.00 0.00 0.00 88 1014.4
20260508100406 59 208 0.0 1.0 0.00 0.00 0.00 87 1014.3
20260508095941 59 180 0.0 0.0 0.00 0.00 0.00 87 1014.3
20260508095404 59 157 0.0 0.0 0.00 0.00 0.00 87 1014.3
20260508094414 59 157 0.0 0.0 0.00 0.00 0.00 86 1014.1
20260508093400 60 157 0.0 0.0 0.00 0.00 0.00 85 1014.1
20260508092929 60 157 0.0 0.0 0.00 0.00 0.00 85 1014.0
20260508092348 60 157 0.0 0.0 0.00 0.00 0.00 86 1014.0
20260508091912 60 157 0.0 0.0 0.00 0.00 0.00 85 1014.0
20260508091434 60 157 0.0 0.0 0.00 0.00 0.00 85 1014.0
20260508090413 60 157 0.0 0.0 0.00 0.00 0.00 85 1014.1
20260508085927 60 157 0.0 0.0 0.00 0.00 0.00 85 1014.0
20260508084913 60 157 0.0 0.0 0.00 0.00 0.00 85 1013.9